ONEWEB-0092 (45437 NORAD) Tracking and Keplerian Element Data

This shows tracking and keplerian element data for the satellite.

Feedback or suggestion? Click here.




ElementValue
Catalog45437
NameONEWEB-0092
Epoch Orbit1593
Epoch Day187.50002315
Epoch Year2020
RAAN104.3553
Inclination87.5708
Eccentricity0.0020139
Argument of Perigee273.5158
Mean Anonmoly170.3985
Mean Motion14.90082982
Decay Rate-0.00021422
L11 45437U 20020P 20187.50002315 -.00021422 00000-0 -22218-2 0 9991
L22 45437 87.5708 104.3553 0020139 273.5158 170.3985 14.90082982 15931

Live tracking and technical data element details for ONEWEB-0092 (NORAD 45437). ONEWEB-0092 can be tracked NOW for your location showing map with azimuth and elevation plus other details from your city location.

Track the satellite on the map from your city or location and see movement details for azimuth, elevation, latitude, longitude, range, height, and movement on the map or in text.







IsCatalogInMostPopularTable: catalog: 45437, numindb: 19
Update: records affected: 1



GetName: 45437 ONEWEB-0092

Hit Count: updated at: Mon, 06 Jul 2020 05:53:01 GMT